Location: Chandrammap?lem
(16.9200°N, 81.0051°E)
Time: 09:57:46
(UTC+00:00)

OAO 2 Rocket - Pass Details

Date: 29 May 2024
Orbit: 672 x 740 km, 35.0° (Epoch: 14 June)

Event Time Altitude Azimuth Distance (km) Brightness Sun altitude
Rises 14:32:08 0° 303° (WNW) 3,158 8.4 -19.4°
Reaches altitude 10° 14:34:35 10° 304° (NW) 2,235 7.1 -19.9°
Maximum altitude 14:39:52 86° 32° (NNE) 738 3.3 -21.0°
Enters shadow 14:41:20 49° 118° (ESE) 939 3.5 -21.2°
